Knoxville, TN

1:18 AM EDT on August 22, 2019 (GMT -0400)
McGhee Tyson

Weather History for KTYS - July, 2019

Change the Weather History Date:

Tuesday, July 16, 2019

  Actual Average Record
Temperature  
Mean Temperature 83 °F 79 °F  
Max Temperature 93 °F 88 °F 100 °F (1980)
Min Temperature 73 °F 69 °F 53 °F (1967)
Degree Days  
Heating Degree Days 0 0  
Month to date heating degree days 0 0  
Since 1 June heating degree days 0 4  
Since 1 July heating degree days 0 0  
Cooling Degree Days 18 14  
Month to date cooling degree days 257 214  
Year to date cooling degree days 836 681  
Since 1 June cooling degree days 536 519  
Growing Degree Days 33 (Base 50)    
Moisture  
Dew Point 68 °F    
Average Humidity 63    
Maximum Humidity 87    
Minimum Humidity 38    
Precipitation  
Precipitation 0.00 in 0.17 in 6.14 in (1917)
Month to date precipitation 1.18 2.67  
Year to date precipitation 40.40 27.92  
Snow  
Snow 0.00 in 0.00 in - ()
Month to date snowfall 0.0 0.0  
Since 1 June snowfall 0.0 0.0  
Since 1 July snowfall 0.0 0.0  
Snow Depth 0.00 in    
Sea Level Pressure  
Sea Level Pressure 30.06 in    
Wind  
Wind Speed 8 mph (SSW)    
Max Wind Speed 21 mph    
Max Gust Speed 28 mph    
Visibility 10 miles    
Events      
T = Trace of Precipitation, MM = Missing Value Source: NWS Daily Summary

Daily Weather History Graph

Daily Weather History Graph

Search for Another Location

Airport or City:

Astronomy

Jul. 16, 2019 Rise Set
Actual Time 6:31 AM EDT 8:51 PM EDT
Civil Twilight 6:02 AM EDT 9:21 PM EDT
Nautical Twilight 5:26 AM EDT 9:57 PM EDT
Astronomical Twilight 4:46 AM EDT 10:36 PM EDT
Moon 8:57 PM EDT (7/16) 6:09 AM EDT (7/16)
Length of Visible Light 15h 18m
Length of Day
14h 20m
Full, 100% of the Moon is Illuminated
Jul 16
Full
Jul 16
Full
Jul 24
Last Quarter
Jul 31
New
Aug 7
First Quarter

Hourly Weather History & Observations

Time (EDT) Temp. Heat Index Dew Point Humidity Pressure Visibility Wind Dir Wind Speed Gust Speed Precip Events Conditions
12:53 AM 77.0 °F - 71.1 °F 82% 30.09 in 10.0 mi Calm Calm - N/A   Mostly Cloudy
1:53 AM 73.9 °F - 70.0 °F 87% 30.08 in 10.0 mi Calm Calm - N/A   Mostly Cloudy
2:53 AM 73.0 °F - 70.0 °F 90% 30.06 in 10.0 mi NE 3.5 mph - N/A   Mostly Cloudy
3:53 AM 73.0 °F - 70.0 °F 90% 30.06 in 10.0 mi NE 3.5 mph - N/A   Mostly Cloudy
4:53 AM 75.0 °F - 70.0 °F 84% 30.06 in 10.0 mi NNW 3.5 mph - N/A   Mostly Cloudy
5:53 AM 73.9 °F - 70.0 °F 87% 30.08 in 10.0 mi Calm Calm - N/A   Overcast
6:53 AM 73.9 °F - 70.0 °F 87% 30.10 in 10.0 mi Calm Calm - N/A   Mostly Cloudy
7:53 AM 75.0 °F - 70.0 °F 84% 30.11 in 10.0 mi Calm Calm - N/A   Mostly Cloudy
8:53 AM 77.0 °F - 70.0 °F 79% 30.12 in 10.0 mi Calm Calm - N/A   Mostly Cloudy
9:53 AM 82.0 °F 85.9 °F 70.0 °F 67% 30.11 in 10.0 mi SSW 8.1 mph - N/A   Mostly Cloudy
10:53 AM 86.0 °F 89.4 °F 68.0 °F 55% 30.11 in 10.0 mi SW 10.4 mph - N/A   Mostly Cloudy
11:53 AM 87.1 °F 92.0 °F 70.0 °F 57% 30.11 in 10.0 mi South 13.8 mph 20.7 mph N/A   Mostly Cloudy
12:53 PM 88.0 °F 90.3 °F 66.0 °F 48% 30.10 in 10.0 mi SW 17.3 mph 23.0 mph N/A   Mostly Cloudy
1:53 PM 90.0 °F 92.4 °F 66.0 °F 45% 30.09 in 10.0 mi SW 15.0 mph - N/A   Mostly Cloudy
2:53 PM 91.0 °F 95.2 °F 68.0 °F 47% 30.07 in 10.0 mi SW 12.7 mph - N/A   Mostly Cloudy
3:53 PM 91.9 °F 94.1 °F 64.9 °F 41% 30.05 in 10.0 mi SW 18.4 mph 25.3 mph N/A   Mostly Cloudy
4:53 PM 91.9 °F 93.3 °F 64.0 °F 39% 30.03 in 10.0 mi SSW 17.3 mph 21.9 mph N/A   Mostly Cloudy
5:53 PM 91.9 °F 92.9 °F 63.0 °F 38% 30.01 in 10.0 mi SW 13.8 mph - N/A   Mostly Cloudy
6:53 PM 90.0 °F 92.4 °F 66.0 °F 45% 30.00 in 10.0 mi South 10.4 mph - N/A   Mostly Cloudy
7:53 PM 88.0 °F 90.3 °F 66.0 °F 48% 30.00 in 10.0 mi SSW 12.7 mph - N/A   Mostly Cloudy
8:53 PM 84.0 °F 87.0 °F 68.0 °F 58% 30.02 in 10.0 mi SW 6.9 mph - N/A   Mostly Cloudy
9:53 PM 81.0 °F 83.8 °F 68.0 °F 65% 30.03 in 10.0 mi SSW 6.9 mph - N/A   Scattered Clouds
10:53 PM 80.1 °F 82.7 °F 68.0 °F 67% 30.04 in 10.0 mi SSW 8.1 mph - N/A   Mostly Cloudy
11:53 PM 80.1 °F 82.7 °F 68.0 °F 67% 30.04 in 10.0 mi South 5.8 mph - N/A   Mostly Cloudy